Content
SEND FEEDBACK

Daily
Averages
Monthly
Summary
United Kingdom

NEWTOWN, ENGLAND


Home > Europe > United Kingdom > England
Elevation: 36 feet     Latitude: 50 46N     Longitude: 001 49W

WEATHER
 
SELECT A DAY
Number of Records: 252,671;   Date Range: 7/1/96 - 7/26/14
 
SHARE

PRINT THIS DATA

[ ← Previous Day ]
WEATHER ALMANAC - DECEMBER 25, 2013
[ Next Day → ]
[ °C ]   °F
Weather ElementAverageHighLow
Temperature40.1 °F44 °F (2:00 pm)36 °F (1:00 am)
Dewpoint37.6 °F41 °F (1:00 pm)35 °F (1:00 am)
Humidity87.9 %99 % (10:00 pm)71 % (2:00 pm)
Barometer29.07 in29.17 in (11:00 pm)28.97 in (1:00 am)
Wind Speed6.3 mph16.1 mph (2:00 am)
Weather ElementAverage
Visibility17.5 mi
Wind DirectionSSW (202.2 °)

Weather ElementTotal
Precipitation---
Heating Degree Days25 (Base 65)
Averaged from 23 records on December 25, 2013
WEATHER CONDITIONS BREAKOUT
WIND DIRECTION BREAKOUT
WEATHER BY HOUR - DECEMBER 25, 2013
[ °C ]   °F
Local TimeTemperatureDewpointHumidityBarometerVisibilityWind DirectionWind SpeedGust SpeedPrecipitationEventsConditions
1:00 AM36.0 °F35.0 °F97 %28.97 in19.0 miWNW (300°)3.5 mph
2:00 AM42.0 °F38.0 °F79 %28.98 in14.0 miWSW (240°)16.1 mphRainLight Rain Showers
3:00 AM37.0 °F35.0 °F92 %29.00 in14.0 miWest (270°)6.9 mphRainHeavy Rain Showers
4:00 AM40.0 °F36.0 °F81 %28.99 in16.0 miWSW (240°)5.8 mphRainLight Rain Showers
5:00 AM40.0 °F37.0 °F83 %29.00 in17.0 miSSW (210°)6.9 mphRainRain
6:00 AM41.0 °F38.0 °F83 %29.02 in12.0 miSSW (200°)9.2 mphRainRain Showers
7:00 AM41.0 °F37.0 °F82 %29.03 in25.0 miSW (220°)6.9 mphRainRain
8:00 AM41.0 °F38.0 °F86 %29.04 in9.0 miSSW (200°)5.8 mphRainLight Rain Showers
9:00 AM43.0 °F38.0 °F77 %29.07 in28.0 miSSW (210°)12.7 mphRainRain
10:00 AM41.0 °F38.0 °F85 %29.09 in19.0 miNW (310°)8.1 mphRainLight Rain Showers
11:00 AM40.0 °F38.0 °F91 %29.10 in18.0 miNorth (350°)3.5 mphRainLight Rain
12:00 PM40.0 °F39.0 °F95 %29.08 in22.0 miNorth (10°)3.5 mphRainRain
1:00 PM42.0 °F41.0 °F93 %29.07 in22.0 miENE (70°)1.2 mphMostly Cloudy
2:00 PM44.0 °F38.0 °F71 %29.08 in31.0 miWSW (250°)12.7 mphRainLight Rain Showers
3:00 PM42.0 °F38.0 °F82 %29.08 in28.0 miWSW (240°)3.5 mphRainRain
4:00 PM39.0 °F37.0 °F92 %29.09 in31.0 miESE (120°)3.5 mphScattered Clouds
5:00 PM43.0 °F39.0 °F82 %29.11 in22.0 miSE (140°)10.4 mphRainRain
6:00 PM41.0 °F39.0 °F91 %29.11 in25.0 miENE (60°)4.6 mphRainRain
7:00 PM40.0 °F39.0 °F93 %29.13 in7.0 miWSW (250°)10.4 mphRainRain Showers
8:00 PM39.0 °F38.0 °F94 %29.13 in14.0 miEast (80°)2.3 mphRainLight Rain
9:00 PM37.0 °F36.0 °F95 %29.14 in7.0 miNorth (350°)2.3 mphRainRain
10:00 PM37.0 °F37.0 °F99 %29.15 in1.0 miNNE (20°)2.3 mphFogFog
11:00 PM36.0 °F36.0 °F98 %29.17 in1.0 miNW (310°)2.3 mphFogFog
Hourly data recorded from EGHH, located miles away from Newtown, England







STORIES FROM OUR PARTNERS